sat.trackr.live / text

‹ back to catalog

STARLINK-32654

NORAD 62322 · 2024-239X

PAYLOAD ACTIVE UNKNOWN

§ Identity

Operator
Country
US
Launch date
2024-12-13
Launch site
AFWTR
Launch vehicle
Mass (kg)
RCS (m²)

Purposes: comms

External: N2YO · Heavens-Above · Gunter

§ Orbital elements

Epoch: 2026-09-21T17:58:33.127392Z

Period
93.85 min
Inclination
53.1605°
Eccentricity
0.0001176
Mean motion
15.34411636 rev/d
Perigee alt
461.9 km
Apogee alt
463.5 km
Semi-major
6,840.8 km
B*
7.8582e-4
RAAN
359.5438°
Arg perigee
90.0209°
Mean anomaly
270.0928°
Rev number
9,945

§ Raw data

STARLINK-326541 62322U 24239X   26264.74899453  .00026277  00000+0  78582-3 0  99902 62322  53.1605 359.5438 0001176  90.0209 270.0928 15.34411636 99458

JSON: /api/v1/satellites/62322 · /tle

For live sub-satellite position, see the globe view (requires WebGL).

§ Visibility from observer

Set your observer location to see the next 7 days of passes ≥ 10°. The values pass through the URL so the page stays shareable.

No JS? Fill the form by hand. The geolocation button needs JavaScript.